Theta_e
311 310 311 313 313 314 314 315 315 314 315 317 316 315 320 320 315 312 312 311 312 312 311 311 312 309 309 309 308 309 310 309 309 310 310 310 310 311 311 311 312 312 311 312 311 311 312 312 312 313 313 312 311 310 310 313 313 313 313 311 311 314 315 316 315 313 312 312 311 312 311 311 312 312 312 313 312 312 314 316 319 321 322 324 327 329 332
311 309 311 313 313 314 314 315 315 315 315 316 316 321 327 322 316 315 312 310 312 313 311 312 312 310 310 310 309 309 309 309 309 309 310 310 309 310 311 311 311 311 310 311 311 311 312 312 311 312 312 311 311 310 310 314 315 315 316 313 310 312 314 316 317 315 314 314 312 312 312 312 312 312 312 312 312 312 313 315 319 321 320 321 324 327 331
311 309 311 313 313 313 314 315 315 315 315 315 316 321 324 320 316 317 314 311 311 311 310 311 311 311 311 311 310 310 309 309 309 309 309 309 309 310 310 310 310 310 310 311 311 311 312 313 312 312 311 310 311 310 310 313 315 315 317 316 312 312 314 315 317 315 314 316 315 314 314 313 312 312 311 312 312 313 314 317 318 319 320 320 322 327 333
312 310 311 312 313 313 314 315 315 315 315 315 315 315 317 316 316 316 314 311 311 310 309 310 311 312 313 312 310 310 310 309 308 309 309 309 309 310 310 310 311 311 311 312 311 311 311 312 312 312 311 310 310 310 310 311 315 316 317 316 313 313 313 315 317 316 315 316 315 313 313 313 312 311 311 311 311 312 315 317 317 318 319 321 323 330 337
312 310 310 312 313 313 314 315 315 315 315 315 315 315 315 316 315 315 315 313 312 311 310 310 311 311 311 312 311 310 311 310 309 309 309 309 309 310 310 311 311 311 312 312 312 312 312 312 312 311 311 311 310 311 310 310 315 317 314 313 314 314 312 313 314 314 312 313 312 311 311 311 311 311 310 311 311 313 316 316 315 318 319 321 325 332 336
313 310 310 311 312 313 314 315 315 316 315 314 316 318 316 315 314 313 313 313 312 312 311 311 312 312 312 311 311 310 311 310 311 310 309 309 309 310 311 310 311 312 313 313 313 314 313 312 313 312 312 312 310 310 310 310 314 315 311 311 313 313 312 311 312 312 311 311 311 311 311 311 310 310 310 311 311 312 315 316 315 318 320 323 327 332 334
313 310 310 311 312 312 314 315 315 316 315 313 316 319 317 315 315 312 311 312 312 311 311 312 312 312 314 313 311 311 311 310 310 309 309 309 310 311 312 311 310 312 314 315 314 315 314 312 313 313 312 312 311 310 311 311 312 312 311 312 313 313 312 311 311 312 312 311 312 312 311 310 310 311 311 311 311 312 314 317 318 321 325 327 329 331 331
314 311 310 311 312 312 313 315 314 315 315 315 317 318 317 317 315 314 314 314 314 314 312 312 313 312 314 314 312 311 311 310 310 309 309 310 310 311 311 311 311 312 314 315 313 313 314 312 312 312 312 312 311 311 311 311 312 312 313 313 312 314 315 313 311 312 311 311 312 312 311 311 310 311 311 311 313 313 314 317 321 325 328 329 329 331 330
315 312 310 310 312 313 313 314 315 315 314 315 317 315 315 315 313 315 318 316 314 315 312 312 314 313 312 313 313 313 311 310 311 310 309 310 311 311 311 311 312 312 313 313 311 312 313 312 311 311 311 311 310 311 311 311 312 313 313 313 313 313 315 313 311 311 311 311 312 312 311 310 311 311 311 312 313 314 316 321 325 327 329 329 329 330 329
315 314 310 310 312 313 313 313 314 315 314 315 317 315 314 315 312 313 317 315 312 312 312 312 313 312 312 313 313 313 312 311 312 312 311 311 310 309 311 313 313 313 313 313 311 311 311 310 309 309 309 310 310 311 311 310 312 313 313 313 314 313 313 312 311 311 311 311 313 313 311 310 311 312 311 312 313 313 317 324 326 326 327 328 328 328 327
315 315 311 310 311 313 313 313 313 315 315 315 316 315 314 315 315 317 320 316 311 311 312 313 313 312 312 313 313 313 313 312 313 313 313 312 310 308 311 315 314 313 313 312 310 309 309 308 308 308 309 310 311 311 311 311 312 313 313 313 314 314 314 313 313 313 312 312 313 313 310 309 311 311 313 315 315 315 319 325 325 324 325 325 325 325 324
314 315 313 311 310 312 313 313 313 314 314 315 315 315 314 313 315 321 324 317 311 312 312 312 312 312 312 312 313 314 315 314 314 314 314 314 312 310 312 315 316 314 312 310 309 309 310 310 310 311 311 311 311 311 312 312 312 312 312 313 314 315 314 314 314 314 313 314 313 310 309 311 311 312 314 317 318 319 322 324 324 323 323 323 323 323 323
313 315 315 312 310 311 313 313 313 313 313 314 315 315 315 313 314 322 326 318 313 314 313 311 311 311 312 313 314 314 314 313 313 314 315 314 314 313 313 315 315 314 312 310 310 311 312 312 312 312 312 312 313 313 312 312 313 312 313 313 314 314 314 315 315 314 313 313 311 309 311 312 312 313 316 317 318 320 322 323 323 321 321 322 322 321 320
312 314 316 314 311 311 312 314 314 313 313 313 314 314 315 314 316 321 325 320 314 312 312 312 312 312 313 315 315 314 314 314 314 315 315 315 315 315 314 314 314 313 312 311 312 313 313 313 313 314 313 313 314 314 313 312 312 312 313 313 313 314 314 314 314 314 314 313 312 313 313 312 314 316 316 316 318 319 320 321 321 319 318 319 321 320 319
311 314 315 315 313 311 311 313 314 314 313 313 313 313 314 314 316 317 318 321 318 312 311 313 313 314 315 316 316 315 314 315 315 315 314 314 314 314 314 314 313 312 311 312 314 314 313 313 315 315 314 314 313 313 313 313 312 311 312 313 313 314 314 314 314 314 315 313 313 312 310 311 316 317 315 315 316 317 317 317 318 317 316 317 319 318 317
311 313 314 315 315 312 311 313 314 315 314 314 314 314 313 313 315 313 314 321 320 314 312 313 314 315 315 314 314 314 314 315 315 315 315 315 315 314 314 314 313 312 312 313 314 314 313 314 314 314 313 312 312 311 311 312 312 311 311 312 313 313 314 314 314 315 315 313 312 312 310 312 316 317 315 313 313 316 316 313 316 317 315 315 316 316 315
310 312 314 314 315 314 312 312 314 315 315 314 315 315 314 314 314 313 316 322 321 315 314 313 312 314 315 314 313 314 314 315 314 314 315 315 315 315 314 314 313 312 313 315 315 315 315 314 313 313 312 310 310 311 311 312 314 313 312 313 313 314 315 314 313 315 315 313 312 312 312 313 316 315 314 312 313 315 314 312 317 317 314 314 315 314 313
310 311 313 314 315 315 314 312 312 314 315 315 315 315 315 315 314 312 316 322 322 316 314 311 311 314 314 314 314 314 313 314 315 315 315 314 315 316 315 314 313 312 313 316 317 316 316 315 313 314 313 311 310 311 311 312 314 313 312 312 312 313 314 314 313 314 316 315 313 314 313 314 315 314 313 313 313 314 313 314 318 317 313 314 314 312 312
310 310 312 313 314 315 315 314 313 313 314 314 315 315 315 315 315 313 315 320 320 315 312 312 313 314 312 312 313 312 311 314 316 315 314 314 314 314 313 313 314 313 314 316 316 315 315 316 314 313 314 313 312 311 310 311 312 312 311 311 312 313 313 312 312 313 314 314 314 313 312 313 314 314 314 314 314 314 313 314 316 314 313 313 313 312 311
310 310 311 313 314 314 315 315 314 313 313 314 315 315 315 315 314 314 315 318 318 317 314 312 313 315 313 312 314 313 313 314 315 315 315 314 313 313 314 314 314 314 314 315 315 314 314 316 315 313 314 315 313 311 310 310 311 312 313 312 312 312 312 312 312 312 312 313 313 310 310 314 314 313 314 315 314 314 314 313 312 313 313 312 312 311 311
310 310 310 311 313 314 314 314 315 314 314 314 314 314 314 314 313 313 314 315 317 318 316 312 312 314 314 314 314 314 314 314 314 314 315 314 313 314 315 315 315 315 315 315 314 314 314 315 314 313 313 313 312 311 312 312 311 311 311 312 312 312 311 311 312 312 312 313 313 310 310 314 314 312 313 315 315 313 312 312 312 313 312 311 311 311 310
310 311 310 311 312 313 313 314 314 315 315 315 314 313 313 313 312 312 313 315 316 317 316 313 313 314 314 314 314 314 314 314 314 313 314 314 313 313 314 316 317 316 314 314 314 314 313 314 314 314 313 313 312 312 312 312 312 311 310 311 312 312 311 311 311 311 311 312 312 310 310 312 313 312 313 315 314 312 311 311 312 312 312 311 310 310 309
310 310 310 311 311 312 312 312 313 314 315 315 315 314 313 313 312 312 314 315 315 316 315 314 314 315 314 315 315 314 314 315 314 314 314 314 315 314 313 315 316 314 313 314 315 315 314 314 314 314 314 313 313 313 312 311 312 312 311 311 311 311 309 310 311 311 310 310 311 310 309 310 312 312 312 313 312 311 310 311 311 311 310 310 309 309 308
310 311 310 310 310 310 311 311 312 313 314 315 314 313 312 312 312 313 314 315 316 317 316 314 314 316 315 315 315 315 315 315 315 315 314 314 316 316 315 314 314 314 316 316 314 313 314 314 313 312 313 313 313 313 314 313 312 312 311 311 311 310 308 309 312 312 311 312 312 311 310 311 312 312 312 312 311 311 310 310 310 310 309 309 308 308 308
309 310 310 310 310 309 309 310 311 312 314 314 314 313 312 312 313 313 315 316 316 317 318 317 315 314 315 315 314 314 314 314 315 315 315 315 315 316 316 315 313 315 317 315 312 313 315 315 313 313 314 314 313 313 314 313 313 312 312 312 313 311 309 310 312 312 312 313 313 311 309 310 310 311 312 312 312 311 310 310 310 309 308 308 309 308 308
309 310 310 310 310 309 309 309 309 311 312 313 313 312 311 311 312 313 314 315 315 314 317 319 317 314 314 315 315 314 314 314 314 314 314 315 315 315 316 316 314 314 314 313 313 314 316 316 315 315 315 314 312 312 313 313 312 311 311 312 312 311 310 311 312 312 312 312 313 312 311 311 310 310 310 310 311 311 310 309 309 308 308 308 308 309 308
309 310 310 309 309 309 308 308 308 309 310 311 311 310 309 309 311 312 313 315 316 316 318 319 318 315 315 315 314 314 314 315 315 315 314 315 315 315 315 316 315 315 314 314 314 314 315 316 316 315 315 313 312 312 312 312 311 311 312 311 310 311 312 311 311 312 313 313 313 314 313 312 312 312 311 310 310 310 310 310 309 308 308 308 308 309 309
309 310 310 309 309 308 308 308 308 309 310 311 310 309 310 310 310 311 313 314 315 316 317 317 317 316 315 314 314 314 315 315 315 315 315 315 315 315 315 315 315 315 315 316 316 315 316 316 316 315 313 312 312 313 313 312 312 312 313 312 310 312 313 312 311 313 314 314 315 315 314 313 313 313 312 311 310 309 309 309 309 308 308 309 308 308 309
309 310 310 309 309 308 307 307 308 308 310 311 310 310 312 313 311 311 312 313 314 314 315 316 316 316 316 315 315 315 316 316 315 316 316 315 315 316 316 315 315 315 315 316 317 317 317 316 316 316 314 314 316 317 315 315 315 315 315 314 312 312 314 313 313 315 314 314 315 314 313 313 313 313 313 312 310 309 309 309 309 308 309 309 309 308 308
309 310 310 309 308 307 307 307 308 308 309 309 309 311 315 316 313 311 311 312 313 314 315 316 317 316 315 316 317 317 316 316 316 316 316 316 316 316 315 315 315 315 316 317 317 318 319 318 317 316 315 316 319 319 317 317 318 317 317 317 315 314 314 313 313 314 314 315 315 313 311 312 312 311 311 311 310 310 310 309 309 309 309 309 309 309 309
309 310 310 309 308 307 307 307 307 308 309 308 310 314 318 319 315 312 311 312 313 315 315 316 316 316 316 317 317 317 317 317 317 318 318 317 316 316 315 315 317 317 318 318 317 317 318 317 315 315 315 316 317 318 316 317 318 317 317 318 317 315 314 314 313 312 313 314 313 310 310 311 310 310 310 309 309 310 310 310 310 310 310 310 310 310 310
310 310 310 309 308 307 308 308 307 307 308 308 309 312 314 314 314 312 311 311 313 315 316 317 317 318 318 318 316 315 316 317 318 319 319 318 317 317 316 316 317 318 318 317 316 316 318 316 313 314 317 316 316 317 318 317 318 317 317 317 316 315 315 315 314 312 312 312 311 310 311 310 310 310 311 311 310 310 310 310 311 310 310 311 310 310 310
310 310 309 309 308 308 309 308 308 309 310 310 311 311 310 310 312 312 311 311 314 315 316 318 319 319 318 318 316 315 316 317 318 319 320 319 318 318 318 317 316 316 317 316 315 316 317 317 316 316 318 317 317 318 319 318 318 318 317 316 315 315 314 314 314 313 312 311 309 310 312 313 311 311 312 312 312 311 311 311 310 310 309 309 309 309 309
309 309 310 310 310 309 308 308 310 311 312 312 313 314 312 311 311 312 311 312 315 317 317 318 319 318 317 317 317 316 316 317 318 318 320 319 317 317 318 317 316 317 317 317 316 316 317 318 318 318 318 318 318 318 319 318 317 317 316 316 315 315 315 314 314 313 313 311 309 309 311 313 312 311 311 311 311 311 311 311 310 309 309 308 308 307 308
309 310 311 311 311 310 309 309 311 312 313 313 314 316 315 313 312 312 313 314 316 318 319 319 319 318 318 319 319 317 316 317 318 318 319 319 317 317 318 318 318 318 318 316 316 316 317 318 318 318 318 318 317 317 317 316 316 315 315 315 315 315 316 315 315 314 313 312 310 309 309 310 311 311 310 310 310 310 310 311 311 309 308 308 307 307 308
310 311 311 311 311 311 311 311 312 313 314 315 315 316 316 314 312 312 313 314 315 318 320 319 319 319 319 319 319 317 316 317 318 318 317 317 317 317 317 318 318 318 317 317 317 317 317 317 317 318 318 317 316 316 316 315 315 315 314 314 314 315 315 315 315 315 313 311 310 309 308 308 309 311 311 311 310 310 310 310 310 309 308 308 308 308 308
311 311 310 310 311 313 313 313 313 314 315 315 315 315 314 313 313 313 313 313 315 316 317 319 320 319 318 319 319 318 317 318 319 319 318 317 317 317 317 317 318 318 318 318 319 318 317 317 317 318 318 316 315 315 314 313 313 313 313 313 313 313 313 314 315 314 312 311 310 309 308 308 309 310 310 310 310 310 310 310 310 309 309 308 308 308 308
309 310 309 310 313 317 319 317 315 315 315 315 315 316 316 314 314 314 314 315 316 317 316 318 319 318 317 318 319 318 318 319 320 320 318 317 317 317 317 317 318 318 318 318 318 317 317 317 317 318 318 316 314 313 312 311 311 312 312 312 312 312 312 313 314 313 312 311 310 309 308 308 309 309 309 310 311 311 311 311 311 310 309 308 308 308 308
309 310 310 312 315 319 319 317 315 316 316 315 315 317 317 317 318 318 316 316 317 318 317 318 318 317 317 319 319 317 317 318 320 320 319 318 318 318 318 317 317 317 316 317 316 315 316 317 317 317 317 315 313 311 310 311 311 312 312 311 312 312 312 312 313 313 313 313 312 310 309 310 310 310 310 310 310 310 310 310 310 309 309 309 309 308 308
309 310 312 314 316 317 316 315 315 316 315 315 316 317 317 318 319 319 318 318 318 318 318 318 318 316 316 318 319 318 317 318 319 320 320 318 317 317 318 318 317 316 316 316 316 315 316 316 316 315 314 313 311 311 310 310 311 312 312 312 313 313 312 311 312 312 312 312 312 311 312 312 311 311 310 310 310 309 309 309 309 309 309 309 308 308 307
309 311 313 314 315 315 315 315 315 315 316 317 318 318 319 320 318 317 318 320 321 319 317 317 318 318 317 317 318 318 318 317 317 317 318 318 316 316 318 318 317 316 316 316 316 316 316 316 315 314 313 312 311 310 310 310 310 310 311 313 314 314 312 311 310 311 310 310 311 312 312 312 311 311 311 311 310 309 309 309 309 309 308 308 308 307 307
310 312 312 312 313 314 315 316 316 316 317 319 319 319 318 318 318 318 319 320 321 321 319 318 319 320 319 317 317 317 317 317 316 316 318 318 316 316 318 318 317 316 316 315 315 316 317 315 314 313 312 311 310 310 309 309 309 309 310 312 313 314 313 311 310 309 309 310 312 312 312 311 312 311 311 310 310 309 309 309 309 309 308 308 307 307 306
310 311 311 312 313 313 314 316 317 317 318 319 320 320 319 317 317 320 320 319 320 321 320 319 319 319 318 318 317 317 317 316 315 316 317 317 315 315 316 317 317 316 315 314 315 317 316 314 313 313 311 310 310 309 309 309 309 309 309 310 311 312 313 312 312 310 309 309 311 312 311 311 311 310 309 309 309 309 309 309 309 309 308 307 307 306 306
310 310 312 315 316 315 316 318 317 318 320 320 319 320 321 320 320 321 322 321 321 321 321 321 321 320 319 318 318 318 317 316 314 316 317 316 315 316 316 316 316 316 315 315 316 316 314 314 313 312 310 309 309 309 308 308 309 308 308 308 309 310 311 312 313 312 310 309 309 310 310 311 311 309 308 309 309 309 308 308 308 308 307 307 306 306 305
313 314 315 317 316 315 316 317 317 317 320 318 317 319 322 321 322 324 324 322 322 321 321 321 321 320 319 319 318 318 318 316 316 317 317 316 316 317 316 316 316 315 315 316 316 314 313 313 313 311 310 309 309 308 308 308 308 307 307 307 307 307 309 311 312 312 312 310 309 310 310 311 310 309 309 309 309 308 308 308 308 307 307 306 306 306 305
314 315 316 318 317 314 313 316 316 317 319 318 318 321 322 322 324 325 324 322 322 321 320 319 319 319 320 320 319 317 317 317 317 317 315 315 317 317 315 314 316 316 316 316 315 314 313 313 311 310 309 309 308 308 307 307 306 306 306 306 306 306 308 310 312 312 312 310 309 309 310 310 310 310 310 309 308 308 308 308 307 307 306 306 305 305 304
314 312 313 318 320 315 313 315 316 316 317 317 318 319 320 321 323 324 323 321 321 320 318 317 318 319 319 318 318 318 317 317 317 317 315 315 316 315 313 314 315 315 314 315 314 313 313 312 310 309 309 308 307 306 306 305 305 305 305 306 306 306 308 309 311 312 312 310 308 308 310 310 310 310 309 309 308 308 308 307 307 306 306 306 305 304 303
315 312 314 321 323 318 315 316 317 316 315 316 317 317 318 319 322 324 323 321 319 318 318 319 320 319 318 317 317 318 317 316 317 316 314 314 315 314 313 314 314 312 311 312 313 312 311 310 308 308 307 306 305 305 305 305 305 305 305 305 306 306 307 308 309 310 311 309 307 307 309 310 310 310 309 308 308 308 307 307 307 306 305 305 304 303 303
313 312 314 318 318 315 314 316 317 317 317 317 317 318 321 321 322 323 323 320 318 318 318 318 319 320 318 315 314 316 316 315 315 314 313 314 315 314 314 314 313 311 311 312 311 310 309 307 306 305 305 304 304 304 304 304 304 304 304 305 305 306 307 307 308 310 311 309 307 307 308 308 309 309 309 308 308 307 307 307 306 306 305 304 303 303 302
311 312 315 316 315 314 315 315 316 319 320 320 319 321 322 322 322 322 321 319 317 318 318 316 316 317 315 313 313 313 313 313 314 314 313 314 314 313 312 312 311 310 310 310 309 307 306 304 304 304 303 303 303 303 303 303 303 304 304 305 305 306 307 307 308 310 310 308 307 307 307 307 307 309 309 308 308 307 306 306 306 305 304 303 302 302 302
311 313 315 315 314 315 315 314 315 317 320 321 322 322 321 322 323 323 320 318 318 319 319 317 316 315 314 313 314 313 311 312 313 312 312 312 312 310 309 309 309 308 307 306 305 304 304 303 303 303 303 302 303 303 303 303 304 304 304 305 305 305 306 307 308 309 309 307 307 307 307 306 306 307 307 307 307 307 307 306 306 305 304 303 302 302 302
313 315 316 314 313 314 314 315 317 318 319 321 322 321 320 321 322 321 319 318 320 321 319 316 315 315 313 313 314 313 311 312 311 310 308 309 310 309 309 308 307 306 305 304 303 302 303 302 302 302 303 303 303 303 303 304 304 304 304 304 305 305 305 306 308 308 308 307 307 307 306 305 305 305 306 307 308 308 307 307 305 304 303 303 302 302 302
Wind_Speed
25 24 25 28 31 32 32 29 24 23 20 13 10 7 2 1 1 6 19 14 3 7 5 2 4 4 2 2 2 3 4 5 7 7 7 5 4 5 6 4 4 5 4 3 2 3 4 4 4 4 4 6 4 6 9 6 3 2 1 1 2 1 1 3 4 3 1 4 3 2 4 2 1 5 7 5 3 3 2 1 1 2 2 2 3 5 3
25 24 25 27 30 32 32 28 22 20 19 15 10 3 1 1 1 4 17 13 3 3 4 3 4 4 2 3 4 4 4 6 8 7 8 6 3 4 5 4 4 4 4 4 3 2 2 3 4 2 3 3 4 6 9 8 5 4 3 1 2 1 1 1 3 3 2 4 4 3 1 3 3 3 7 7 7 4 1 1 1 2 1 1 2 5 4
24 24 24 27 29 31 31 28 21 18 16 12 8 1 2 2 1 2 13 17 9 3 1 3 4 3 3 5 5 4 3 4 5 6 7 6 4 3 3 3 4 4 3 5 6 5 4 3 1 1 3 2 3 6 9 8 7 7 6 3 2 1 2 1 1 2 3 2 1 2 0 3 2 4 7 9 10 8 2 1 1 3 1 1 1 5 6
23 23 24 26 28 30 31 27 21 17 14 8 7 4 1 1 2 1 5 10 7 3 2 2 3 3 2 4 4 4 3 2 3 4 6 6 6 5 3 2 2 4 5 6 8 9 8 5 3 2 2 2 2 4 6 8 9 9 9 7 2 2 3 3 3 2 1 3 3 1 2 2 2 4 8 9 10 9 3 1 1 3 4 3 4 4 9
22 23 23 25 27 29 31 28 20 16 13 6 4 5 2 1 2 2 1 2 3 3 4 3 2 1 1 2 2 4 4 2 3 4 4 4 5 5 5 4 3 4 5 5 6 7 7 7 5 3 2 1 1 3 4 8 11 10 8 7 2 3 3 4 6 8 6 5 5 2 1 2 3 5 7 8 9 9 5 4 3 1 3 4 2 3 8
21 22 22 24 26 28 30 28 20 15 13 7 3 2 3 1 1 0 1 1 2 3 4 5 4 4 2 1 2 3 4 4 4 3 2 3 4 3 4 7 7 5 3 3 3 3 5 6 3 2 2 1 1 2 3 6 9 7 6 5 2 3 3 3 5 8 7 5 4 4 3 3 3 4 6 6 7 7 7 7 4 3 1 6 6 6 8
19 20 21 23 25 27 29 28 22 14 11 10 7 4 2 1 2 0 1 1 2 1 3 4 5 6 4 3 3 3 4 5 3 2 2 4 5 4 4 6 7 5 3 2 3 2 2 4 2 1 2 1 1 2 2 3 5 5 5 4 2 1 3 3 4 6 6 4 4 5 5 3 4 5 6 5 4 5 6 6 6 6 7 9 9 9 9
18 19 19 21 23 25 27 27 24 16 10 10 10 5 2 1 2 0 1 3 2 1 2 3 3 5 3 2 3 2 3 4 2 2 3 4 3 3 5 6 5 6 6 5 6 3 2 4 3 1 1 1 1 1 0 1 3 4 3 3 2 1 2 2 2 3 3 4 5 6 5 3 5 7 8 7 5 5 5 5 6 7 9 10 10 10 8
16 17 18 19 21 23 26 27 25 19 12 11 9 5 3 2 1 1 2 2 3 2 2 2 2 3 3 2 2 1 3 3 2 3 4 3 3 4 5 6 4 5 7 8 6 3 1 3 3 1 1 1 1 1 0 1 1 4 3 2 3 2 2 2 1 2 2 2 5 7 4 3 5 6 8 7 5 4 4 3 4 3 7 10 8 6 5
15 15 16 16 18 20 23 25 26 22 17 13 7 2 2 2 1 1 1 2 2 2 1 1 1 2 2 1 1 2 2 1 2 3 3 3 3 4 4 3 3 4 6 7 5 2 1 2 2 1 2 3 3 2 3 2 2 2 2 2 2 1 2 3 2 2 3 1 4 5 0 3 3 4 4 5 3 3 2 3 5 4 5 7 4 4 5
13 14 15 14 15 17 19 22 24 24 22 17 8 2 2 1 1 1 1 2 2 1 1 2 2 1 1 1 1 2 3 3 1 2 3 2 3 2 2 2 3 3 4 4 3 2 3 3 4 5 5 6 6 5 5 6 5 2 1 1 1 2 2 2 1 1 3 1 3 2 3 3 2 3 1 2 2 1 2 4 5 6 4 4 5 7 6
12 12 13 13 13 14 16 18 20 22 22 19 12 7 4 2 1 0 1 3 1 0 2 2 1 1 0 1 2 2 4 5 3 2 4 4 2 2 2 3 3 2 3 3 4 5 6 6 8 8 8 8 8 8 8 9 7 4 2 1 2 3 3 2 0 0 2 1 1 3 3 1 2 2 0 1 1 1 5 6 6 6 6 6 7 7 6
11 10 11 12 12 12 13 14 16 18 18 17 15 13 9 4 1 1 1 3 1 0 2 3 1 1 1 3 4 2 2 3 2 2 4 4 3 3 2 2 2 1 2 5 6 4 4 5 5 5 5 4 5 7 9 8 7 6 5 3 1 2 3 2 1 0 1 1 2 2 0 2 1 1 1 2 1 4 6 5 4 5 5 4 5 5 5
11 9 9 10 10 10 10 11 12 13 15 16 16 15 13 8 3 0 0 2 1 0 1 2 2 1 2 3 3 2 1 2 2 2 2 2 2 3 2 1 1 1 3 5 4 2 2 2 2 2 1 1 1 2 3 4 5 6 6 5 2 1 2 2 1 1 1 1 1 0 1 2 3 3 2 1 2 3 2 2 3 3 4 2 3 3 3
11 8 7 9 9 9 8 9 10 10 12 13 14 15 15 13 7 2 1 1 2 1 1 2 3 3 2 2 2 2 2 2 1 1 1 1 0 1 1 1 1 2 3 3 1 1 2 2 2 3 2 2 1 0 0 0 2 4 4 3 3 2 0 1 1 1 1 1 1 1 2 3 4 5 4 1 2 3 0 1 2 2 1 1 2 2 2
11 8 6 6 7 7 7 7 8 9 10 11 12 14 16 15 10 5 2 1 1 1 1 2 3 3 2 1 0 1 2 2 1 1 1 1 1 1 0 1 1 2 3 2 1 2 1 1 2 2 2 1 0 0 1 1 1 2 3 3 4 4 2 0 1 1 2 2 1 2 3 1 4 8 6 3 2 3 2 3 2 4 3 2 2 1 1
10 8 6 5 6 6 6 6 6 8 9 9 10 13 15 14 12 7 3 1 1 1 0 3 4 3 2 2 1 1 1 1 1 1 1 1 0 1 1 1 2 1 1 1 1 1 1 2 1 1 2 1 1 0 0 0 1 1 1 2 3 3 2 1 2 2 2 3 2 2 2 1 5 8 7 4 4 4 3 4 2 5 5 3 2 1 1
10 8 6 4 5 5 5 5 5 6 7 8 8 9 11 13 12 8 3 1 0 1 2 4 3 2 1 1 1 1 1 1 1 0 0 1 0 1 1 0 1 1 0 1 1 1 2 2 1 1 2 2 1 1 1 1 1 1 1 2 2 2 2 1 1 1 2 3 3 2 2 1 5 8 8 7 6 5 4 2 3 6 5 3 2 3 3
10 8 6 4 4 4 4 4 4 4 5 6 6 6 7 10 12 10 4 1 0 1 1 3 2 1 3 2 2 2 1 0 1 1 1 1 1 1 1 0 1 0 1 1 1 1 1 1 1 1 1 2 2 1 2 2 1 2 2 1 1 1 1 1 1 1 1 2 2 3 2 2 6 8 7 6 4 3 1 2 4 5 5 4 4 4 3
10 8 6 4 4 4 4 4 4 4 4 5 5 4 5 8 10 10 6 2 1 2 1 4 4 4 5 4 2 3 2 1 1 2 2 1 1 2 2 1 1 1 1 2 2 1 1 2 2 1 2 2 2 2 2 1 2 2 3 1 1 3 2 2 2 3 1 1 2 2 3 2 10 10 7 6 4 1 3 4 4 5 5 4 4 4 4
10 8 6 5 4 4 4 3 3 4 4 4 4 3 3 4 6 7 6 2 2 1 0 2 4 5 6 6 4 4 4 3 2 2 1 1 1 2 1 1 1 1 1 1 1 1 1 1 2 1 1 1 1 2 2 1 2 2 1 1 2 4 4 2 3 4 3 2 4 1 2 3 10 9 4 4 3 4 5 5 4 5 5 4 4 4 4
11 8 6 5 4 4 4 4 4 4 3 3 4 2 1 3 4 5 5 2 2 3 3 4 6 9 10 10 10 9 7 5 3 2 1 1 1 1 0 0 2 2 1 1 1 1 1 2 2 2 2 2 2 2 2 2 2 2 2 2 3 4 3 1 2 4 4 3 2 0 3 1 6 4 1 4 6 6 6 5 3 5 5 4 4 4 5
11 9 6 5 4 4 5 5 5 5 4 4 4 2 1 3 4 5 5 3 3 5 6 6 7 9 9 9 10 12 12 11 11 10 7 3 1 1 2 2 1 1 1 2 1 1 2 2 1 1 2 3 3 3 3 3 2 2 3 4 2 1 2 1 1 2 3 6 6 4 3 4 6 5 1 5 5 5 6 5 4 4 4 4 4 4 4
12 10 7 5 3 3 4 5 6 6 6 6 5 4 3 3 3 4 4 1 1 2 2 3 2 2 2 0 2 5 7 8 11 13 13 9 4 2 2 2 2 1 2 3 1 1 1 1 1 1 3 3 3 3 4 4 3 3 4 3 2 3 5 4 3 2 3 4 4 5 6 7 7 7 5 4 4 4 5 5 4 4 5 5 5 5 5
12 10 7 5 4 4 4 4 5 6 6 7 6 5 5 3 1 2 2 1 1 1 0 1 1 1 1 3 4 4 4 5 6 8 12 14 12 7 2 3 5 3 1 2 3 2 1 1 1 2 3 3 4 4 3 3 3 4 5 4 3 4 6 6 5 5 5 4 1 2 4 5 5 6 5 6 6 6 6 6 5 5 6 6 6 6 6
12 10 8 5 4 4 3 4 5 5 6 7 6 5 5 3 2 3 3 3 2 1 0 2 1 1 3 8 7 4 3 5 6 7 10 13 16 13 5 3 4 2 2 3 2 2 2 1 2 3 3 3 4 4 2 1 1 3 4 3 2 5 6 5 4 6 6 7 7 5 4 5 7 9 9 8 7 6 8 7 6 6 7 7 7 8 8
12 10 8 6 4 4 4 4 4 5 6 7 6 5 5 4 4 6 5 3 1 0 1 1 1 3 7 8 7 4 1 3 5 7 10 11 13 13 10 5 3 2 3 2 1 1 1 2 3 4 3 2 2 2 1 0 1 2 4 2 4 5 6 4 3 4 6 7 7 6 4 5 6 8 10 11 9 8 8 8 8 8 8 7 7 8 9
12 10 8 6 5 4 4 3 4 4 5 6 5 5 4 3 3 8 10 6 1 1 1 2 4 6 7 5 6 6 4 2 3 6 9 10 10 11 11 8 5 3 4 3 2 2 4 4 3 2 2 2 2 2 1 1 1 4 6 5 7 7 7 7 7 7 7 7 6 6 5 6 4 3 6 8 8 9 9 10 10 10 9 8 8 7 8
12 10 7 6 5 4 4 3 3 4 5 5 5 3 2 3 1 7 12 9 3 1 1 3 4 3 3 5 7 7 5 4 4 5 6 7 9 10 10 9 7 5 4 3 2 3 3 2 1 1 1 2 2 1 1 2 5 7 5 7 9 7 6 8 9 8 7 7 4 5 7 6 3 3 5 6 8 9 10 10 10 10 9 8 8 8 8
11 9 7 6 4 4 4 3 2 3 4 3 3 1 0 1 2 4 11 10 5 2 2 2 2 2 3 5 5 5 5 5 3 2 2 2 4 7 8 7 5 4 3 2 1 1 1 1 0 0 1 2 2 0 1 3 5 5 2 5 9 8 6 7 8 8 8 6 1 4 7 6 1 2 3 5 8 9 9 9 10 9 8 8 8 8 9
10 8 6 6 4 3 3 2 2 3 3 1 1 1 0 0 1 3 10 12 7 2 1 1 3 3 3 2 2 4 7 5 1 2 2 2 1 1 4 5 3 3 3 1 1 1 1 1 1 1 2 4 3 2 3 3 4 4 3 5 7 7 7 8 8 8 9 4 3 3 4 3 2 2 3 6 9 10 8 8 10 10 8 8 8 8 8
9 7 6 5 4 3 2 2 2 3 3 1 1 1 2 1 1 4 11 12 7 2 1 2 3 2 2 1 2 4 5 2 1 1 1 1 2 2 3 2 1 2 2 2 2 1 1 2 3 3 3 5 4 2 2 3 6 7 5 4 6 6 7 8 9 9 9 5 4 3 4 5 7 7 5 7 11 12 9 8 9 8 7 6 6 7 8
8 6 5 4 2 1 1 1 2 2 2 1 1 1 2 4 4 7 12 11 5 1 0 1 3 2 2 3 2 2 3 1 0 1 2 1 1 1 2 2 1 2 3 3 2 2 1 2 3 3 2 4 3 2 3 5 8 9 7 6 7 7 8 8 8 8 7 5 7 8 8 6 8 8 5 6 9 11 10 9 7 6 5 5 5 7 8
7 5 3 2 1 0 0 2 3 4 4 3 4 4 1 4 6 10 13 9 2 1 2 1 3 3 3 3 1 3 4 3 1 1 1 2 1 0 1 2 1 2 3 3 2 1 2 2 2 2 2 3 2 3 3 5 7 8 8 9 8 7 7 7 6 7 7 5 8 10 8 2 4 6 6 6 7 8 9 8 7 6 5 5 6 7 8
5 3 1 1 2 2 3 4 5 5 4 3 3 4 3 2 6 10 11 6 1 1 1 1 2 2 3 3 1 2 3 2 1 1 1 1 2 1 1 1 1 1 2 2 1 2 2 2 1 1 1 2 2 2 2 5 10 11 10 11 10 7 7 7 6 6 6 5 6 8 6 4 5 7 7 7 7 8 8 7 7 6 5 5 6 7 8
2 0 2 4 5 5 4 4 3 3 3 4 4 5 5 4 7 10 7 2 2 1 0 1 2 2 2 3 2 2 3 2 0 0 1 0 1 1 1 0 1 1 2 2 2 2 1 1 1 1 1 1 1 1 2 6 11 12 12 13 12 9 8 9 8 6 4 5 6 6 6 8 8 6 6 6 6 7 6 5 5 5 5 6 6 6 7
1 4 5 5 5 3 2 2 3 4 4 6 7 8 8 8 7 7 4 1 2 2 1 2 3 3 3 3 2 2 2 1 0 1 1 0 0 1 1 1 1 1 1 2 2 2 1 1 1 2 1 1 1 3 5 7 9 11 12 12 11 10 9 9 8 6 4 4 5 6 6 8 8 5 5 6 6 5 5 5 5 5 5 6 5 5 6
4 5 4 3 2 1 1 2 2 3 5 5 4 3 3 3 3 3 2 2 2 2 2 2 4 3 3 3 2 0 1 2 2 1 1 1 0 0 1 1 1 1 2 2 1 1 2 2 2 2 1 1 1 4 6 7 8 9 10 11 10 8 7 6 6 8 7 5 5 6 7 7 7 7 6 7 6 5 4 5 4 4 5 5 5 5 6
5 4 3 2 1 1 2 3 3 5 5 2 1 1 1 1 1 1 1 1 2 2 2 3 4 3 4 5 4 1 1 1 2 1 1 1 1 1 1 1 0 1 3 2 1 2 2 2 2 2 1 1 2 5 7 7 7 8 9 9 8 6 5 4 5 9 8 5 5 8 9 8 8 8 6 5 5 5 3 3 4 4 5 4 4 5 6
4 2 1 2 2 2 3 4 4 4 3 2 1 1 0 1 1 1 1 1 2 2 2 2 3 3 4 5 4 2 2 2 2 2 2 1 0 1 2 1 1 1 3 3 1 2 2 2 2 3 1 2 4 5 7 7 7 8 9 9 8 7 6 5 5 7 7 3 2 7 9 8 8 8 7 6 5 4 3 4 4 4 3 2 3 5 7
2 2 2 1 1 1 2 2 2 1 1 1 1 1 0 1 1 1 1 2 3 2 2 2 2 2 3 4 3 3 3 2 0 0 1 2 1 1 2 1 0 2 4 3 1 1 2 2 2 3 1 1 3 4 6 7 7 8 9 11 11 10 8 7 7 6 5 4 3 5 7 7 8 8 7 7 6 4 4 5 4 2 1 1 3 5 6
4 3 2 1 0 1 1 1 1 0 1 0 1 1 1 1 1 2 2 2 2 1 1 2 2 2 2 3 3 3 2 1 1 1 2 1 0 1 2 1 1 2 3 1 1 1 2 3 3 3 1 1 3 4 5 6 7 8 9 10 12 11 8 6 6 6 5 5 3 5 7 8 8 8 7 7 7 6 5 5 3 1 1 1 2 4 6
6 3 1 1 1 1 1 1 1 1 1 1 1 0 1 1 1 2 2 1 1 1 1 1 1 1 1 2 2 1 0 1 1 1 1 1 0 0 1 1 2 2 1 0 2 3 3 3 4 2 1 2 3 4 5 6 6 7 9 9 11 12 10 6 4 4 5 5 4 5 8 9 8 7 8 8 8 7 6 4 2 2 2 1 2 4 7
5 2 1 1 2 1 0 0 1 1 1 1 1 1 1 1 1 1 1 1 1 1 1 1 0 1 1 1 1 1 1 1 0 1 1 1 0 1 2 2 2 1 1 1 2 3 3 4 3 1 2 4 4 5 7 7 6 6 8 9 11 12 12 9 6 5 4 4 5 6 8 8 7 7 8 8 8 7 6 4 3 3 2 1 2 5 7
3 1 1 1 1 0 0 0 0 1 2 2 2 2 1 1 1 1 1 0 1 1 1 1 1 2 2 1 1 1 1 1 1 1 1 1 2 2 2 1 1 1 2 2 2 2 3 3 2 0 4 6 7 8 8 8 6 7 9 9 10 11 11 9 9 7 4 4 5 6 7 8 8 8 8 8 8 7 6 5 5 4 2 1 4 6 8
1 1 2 1 0 1 1 0 1 1 2 2 2 3 2 1 1 1 1 1 2 2 2 2 3 4 3 1 1 1 1 1 1 1 1 1 2 2 1 1 1 2 3 3 3 4 3 1 0 2 6 9 9 9 8 7 7 7 8 9 9 11 11 10 10 10 6 5 6 8 7 9 9 9 9 10 8 7 6 6 5 4 2 2 5 7 8
1 2 1 1 0 1 1 2 2 2 1 1 1 2 1 1 0 1 1 2 2 2 2 2 3 3 2 1 1 1 1 1 1 1 1 1 2 1 0 2 3 2 3 3 3 3 1 2 4 6 8 9 10 9 9 9 8 9 10 10 10 11 11 10 11 12 8 6 7 8 7 9 10 10 10 10 9 7 8 7 6 4 3 4 5 7 8
1 1 0 1 1 1 1 1 1 1 1 1 1 1 1 0 1 2 2 2 2 2 3 2 2 2 1 1 1 1 1 1 2 1 1 1 2 1 1 3 3 3 2 3 3 4 4 6 8 8 8 9 10 10 10 10 10 11 11 10 10 11 11 10 12 14 9 6 8 6 5 8 10 11 12 11 9 9 9 9 7 5 4 5 6 7 7
2 1 1 1 2 2 2 1 2 2 1 0 1 1 1 1 2 3 2 1 1 2 2 2 2 1 0 0 1 1 1 1 1 1 0 1 2 2 2 4 5 4 2 2 4 7 8 8 8 9 10 10 10 10 10 11 11 10 10 10 11 11 12 12 14 15 9 7 10 9 9 11 11 10 11 11 11 11 11 9 7 6 5 6 6 6 7
2 1 1 2 2 2 2 1 1 1 1 1 1 1 1 1 2 2 1 1 1 1 1 1 1 1 0 0 0 1 0 0 1 1 2 2 1 2 3 5 6 6 6 6 6 8 8 8 8 10 11 11 11 12 12 11 10 10 10 11 13 13 12 13 16 14 7 10 14 14 15 14 12 10 10 12 13 13 11 9 7 7 7 7 7 7 7
1 1 2 3 3 2 1 1 2 2 2 2 3 2 1 2 2 1 1 2 1 0 1 1 0 0 0 1 1 1 0 1 1 1 2 1 1 3 5 7 7 7 8 8 8 8 8 9 10 11 12 12 12 12 11 11 12 12 12 13 14 13 11 14 15 10 8 14 15 15 16 16 14 12 13 15 15 14 10 8 7 7 7 7 7 7 7
1 1 2 2 3 3 2 2 2 2 2 2 3 2 2 2 1 1 1 2 1 1 1 1 0 1 1 1 1 1 1 1 1 2 2 1 1 3 5 7 8 8 8 8 9 9 10 10 11 12 12 12 12 11 12 12 13 12 12 13 13 12 12 14 12 5 11 13 13 15 16 16 14 14 16 15 13 11 8 7 8 8 7 7 6 6 6
Wind_Direction
5 5 5 6 7 6 5 3 358 357 2 5 2 12 44 40 58 357 354 352 54 78 60 47 54 61 56 49 25 19 28 10 2 6 12 25 42 41 39 32 39 50 52 69 79 63 60 40 50 97 78 45 18 329 330 328 325 356 26 17 6 23 43 60 89 84 136 187 210 343 7 346 26 40 23 16 8 339 324 357 111 130 119 136 132 116 110
4 5 6 7 8 8 7 5 1 359 2 1 358 15 107 34 215 350 9 18 92 94 66 97 84 66 55 57 43 33 42 27 19 20 21 21 29 49 42 25 37 51 48 67 74 37 60 68 49 70 85 39 358 338 346 357 19 25 13 358 356 13 12 45 121 131 177 206 215 194 89 24 38 23 3 12 16 4 337 308 293 108 52 290 160 128 118
4 5 7 8 9 9 9 7 4 2 3 5 10 77 160 37 179 280 11 32 59 75 59 101 98 90 69 61 41 27 58 42 16 24 34 30 28 57 51 18 37 56 63 73 60 30 43 90 86 65 90 63 356 349 350 0 28 42 38 23 359 48 30 328 188 179 196 184 149 160 79 5 20 2 358 11 11 2 354 200 156 119 112 319 73 117 122
4 5 7 9 9 10 11 10 7 6 8 19 38 58 155 42 48 308 1 27 47 59 20 47 90 100 78 65 36 19 52 42 354 21 40 29 31 54 53 359 29 52 60 74 59 37 43 73 101 99 76 74 28 337 340 5 20 30 38 29 18 113 64 17 37 60 95 102 73 38 340 354 18 6 3 10 4 354 343 168 96 114 131 98 44 103 126
4 6 8 10 10 11 13 12 11 11 13 28 57 43 43 100 49 5 351 22 30 45 33 18 53 94 75 75 28 12 31 31 12 34 44 22 22 47 45 19 27 53 62 77 63 40 49 63 71 71 50 61 8 316 340 10 5 7 25 17 8 117 80 37 59 70 79 87 74 49 1 15 14 360 359 2 359 358 21 72 68 60 141 111 79 132 127
5 7 8 10 10 12 14 15 16 17 17 29 79 52 17 60 105 279 282 17 22 29 13 7 44 64 58 79 56 29 42 46 35 32 50 32 11 33 53 28 24 41 61 96 81 45 55 59 47 45 54 53 350 1 20 14 359 5 29 19 17 95 83 58 81 89 88 77 57 35 15 26 27 11 10 6 360 11 40 62 49 342 60 114 138 141 116
5 8 9 11 11 13 15 18 22 22 22 38 67 77 16 59 105 74 308 81 80 27 337 346 45 55 44 54 58 45 51 57 50 359 36 56 21 20 66 38 21 30 33 88 97 68 77 80 51 21 60 47 29 39 38 19 6 14 41 37 11 62 86 89 110 105 82 43 30 23 11 35 67 52 42 39 39 43 46 57 66 75 93 112 128 121 103
5 10 12 13 13 15 16 20 27 29 35 55 62 52 4 70 99 18 63 80 64 31 351 352 45 46 31 51 57 41 50 60 69 5 27 71 48 39 82 70 45 44 47 71 82 65 86 92 87 174 169 61 75 68 295 2 22 20 34 37 357 343 95 93 130 122 75 14 6 12 14 69 92 69 49 47 70 70 47 55 80 93 109 123 126 116 109
4 12 15 16 16 18 18 22 29 34 46 67 68 40 24 69 66 340 103 72 11 15 32 1 45 49 29 47 64 63 59 62 90 50 19 42 85 99 107 96 70 55 58 67 67 52 69 61 49 152 148 40 53 58 254 231 3 28 36 16 4 35 108 116 176 161 114 26 357 359 17 112 113 78 45 30 49 64 41 42 48 72 130 142 140 126 124
2 12 17 19 20 22 22 24 30 36 49 67 78 45 28 77 78 27 102 87 7 17 50 1 70 68 11 14 49 59 68 128 177 97 40 15 56 100 139 124 89 73 66 61 48 25 275 340 6 83 90 68 68 60 76 92 3 29 63 33 14 47 126 140 177 178 145 89 345 343 311 170 142 84 36 3 17 53 64 69 44 49 141 161 152 127 125
357 11 18 22 24 26 26 28 31 36 46 57 70 73 11 18 111 38 76 91 50 2 73 49 68 82 335 17 71 79 93 98 104 96 88 43 33 75 134 111 97 86 63 54 54 91 116 103 93 99 90 85 83 72 79 74 43 20 69 76 79 106 119 129 197 179 150 130 335 301 206 192 120 74 21 298 317 49 101 98 65 64 101 119 105 112 118
352 8 18 24 28 30 31 33 34 37 43 49 58 66 41 12 68 46 84 99 85 344 92 71 37 22 6 100 86 70 84 84 65 81 109 104 101 121 93 76 97 82 56 86 129 129 116 100 92 87 77 77 79 70 64 57 43 28 23 58 127 134 123 125 173 143 134 123 212 199 199 130 60 56 199 247 282 123 117 103 80 72 84 101 107 108 107
348 2 16 24 29 33 34 35 37 40 42 44 48 51 39 22 49 67 78 102 103 56 98 94 32 28 114 117 102 84 78 86 76 86 98 103 121 125 94 68 81 58 86 116 125 130 111 86 84 88 69 60 77 70 54 40 27 25 23 17 65 147 142 131 112 121 131 151 189 201 4 35 53 89 157 166 162 149 141 127 100 68 60 92 107 98 96
345 357 12 21 29 36 36 34 37 41 42 42 45 46 40 33 37 79 111 102 97 220 140 121 125 138 124 104 103 117 119 96 81 73 75 83 101 104 100 60 56 117 159 129 111 107 118 108 122 129 87 350 183 103 58 41 30 25 16 2 8 114 154 147 142 189 174 168 193 273 2 206 181 143 139 169 136 129 152 161 130 79 35 59 107 99 84
344 351 4 15 26 36 39 35 37 43 44 43 45 45 41 34 29 38 121 110 113 159 223 171 151 161 155 126 144 154 134 122 122 86 53 356 58 134 119 36 45 151 155 137 107 102 131 171 178 163 177 226 218 186 36 106 58 37 19 7 34 55 12 235 191 172 173 194 208 188 191 197 168 145 140 130 104 115 121 258 162 141 76 92 119 93 65
342 345 353 7 17 31 41 39 39 46 48 48 48 46 41 34 28 34 61 89 123 145 227 179 155 147 136 129 192 199 159 163 168 144 155 196 244 232 169 55 89 152 131 100 89 90 103 172 186 181 194 204 186 348 342 284 151 78 49 44 73 77 56 52 179 154 175 208 221 197 196 144 131 148 154 158 169 165 203 258 209 160 156 158 159 117 74
340 341 344 355 3 18 37 39 37 43 47 49 49 45 39 32 25 24 40 79 77 12 143 148 137 128 140 163 199 217 147 126 124 191 199 179 215 277 267 65 87 118 117 112 116 102 107 116 131 204 186 129 137 205 67 245 206 158 98 67 83 83 58 60 198 175 177 211 235 225 233 126 136 155 155 150 163 173 226 265 195 158 177 183 179 234 277
338 337 336 341 345 354 23 35 32 33 38 41 44 43 37 32 28 27 41 105 46 321 196 175 162 151 168 176 160 150 130 117 143 201 139 117 188 255 261 118 118 98 21 165 156 138 140 142 170 213 165 141 182 212 136 165 211 150 119 86 75 65 40 27 246 202 189 217 244 257 267 163 155 164 155 145 160 191 237 269 130 155 187 199 206 262 287
336 334 331 329 327 332 355 20 23 20 25 31 37 40 32 27 29 31 40 95 73 358 177 188 214 182 129 104 88 119 140 118 141 169 185 174 161 140 89 96 199 3 39 123 159 155 164 169 171 210 182 165 179 188 152 165 167 124 133 142 150 150 130 123 199 178 179 228 262 278 283 170 148 145 143 155 187 219 215 102 126 163 185 197 222 260 288
335 332 328 322 318 316 325 348 4 5 7 16 27 39 26 17 23 28 32 77 173 307 234 198 222 210 174 172 166 157 178 207 172 191 212 161 130 173 187 167 165 161 149 170 167 170 200 177 136 185 215 164 152 177 175 182 203 178 174 205 195 172 178 188 177 159 143 196 221 267 323 133 142 136 142 188 221 178 119 131 154 179 184 195 226 257 282
335 329 323 318 313 310 311 319 333 339 345 356 4 19 13 359 6 13 14 55 144 331 312 194 223 224 208 211 208 189 193 194 172 188 216 139 150 209 227 132 146 162 172 176 158 165 220 179 137 165 214 121 151 192 184 198 217 200 211 264 197 186 196 201 185 183 182 184 192 215 3 146 162 155 156 193 183 122 136 159 172 182 193 208 228 247 262
335 329 320 312 308 310 312 305 306 315 319 328 337 342 323 323 334 344 344 320 228 249 265 262 266 263 255 250 242 234 236 238 237 238 204 138 172 225 275 118 197 193 146 147 159 157 165 160 163 179 170 165 191 192 186 226 220 158 174 222 216 197 190 186 200 198 206 237 232 305 17 171 194 205 93 131 139 141 159 175 174 180 194 208 225 239 248
334 329 318 308 300 308 315 310 305 306 304 310 321 326 290 298 313 328 332 309 249 256 260 265 273 272 267 260 248 243 247 249 248 243 229 210 196 210 216 231 231 161 155 202 221 184 173 173 169 188 187 187 194 188 198 236 240 171 181 214 237 175 139 161 211 190 235 262 245 232 262 240 220 232 186 122 135 155 171 185 187 181 189 200 218 240 246
332 327 317 305 294 298 309 310 306 306 306 308 314 323 325 317 324 338 333 300 287 294 256 254 277 252 217 224 258 250 246 242 242 239 229 218 213 230 234 210 199 188 199 211 187 80 142 164 112 222 224 193 182 198 216 228 222 186 180 208 227 177 171 198 216 178 207 242 210 204 234 236 222 224 216 190 191 181 176 195 198 181 186 201 215 236 245
331 326 317 304 290 290 300 308 308 308 308 308 308 314 320 316 12 44 42 56 13 10 279 295 317 166 146 347 321 287 266 246 239 235 224 214 216 233 246 155 184 212 202 161 155 141 174 171 143 214 229 195 190 215 232 229 201 181 195 219 213 170 176 199 214 204 217 251 246 192 234 243 236 235 228 220 218 197 184 198 194 176 187 204 212 225 234
331 326 316 305 291 285 289 299 307 308 309 311 309 305 303 284 218 153 111 102 103 104 323 299 227 167 334 327 315 294 267 246 235 234 230 222 222 231 233 151 166 174 94 115 178 195 193 165 171 212 224 204 205 216 219 199 147 172 215 235 109 131 164 184 196 206 235 269 264 233 238 255 242 229 227 229 225 201 188 192 189 186 196 206 212 218 225
330 324 314 302 291 286 285 292 304 310 314 320 322 312 306 292 226 192 171 153 163 215 314 268 258 325 329 320 314 328 318 243 236 235 238 235 228 228 226 210 189 150 130 140 184 172 179 200 211 217 211 185 197 218 225 185 123 191 231 202 130 158 183 168 171 212 232 250 236 205 216 260 243 215 216 218 210 197 190 188 191 200 207 212 217 221 223
329 323 312 299 288 281 280 284 296 311 321 331 335 327 323 321 233 199 187 179 185 325 303 257 288 315 317 303 315 339 351 312 268 245 236 234 226 222 220 213 206 195 183 184 179 183 207 223 216 194 161 156 191 211 197 131 184 239 235 191 173 200 199 176 192 225 237 243 225 183 200 253 255 195 197 196 184 187 193 193 198 206 210 214 221 226 229
327 322 309 297 285 275 274 277 292 316 332 345 351 350 9 18 333 203 193 184 159 76 327 292 289 303 309 306 316 331 355 353 312 267 249 238 224 218 215 209 208 209 204 207 214 205 211 228 212 159 158 183 194 198 199 212 231 244 230 180 185 213 220 202 212 231 247 257 240 183 203 239 242 178 178 169 166 183 194 196 201 206 209 214 223 235 245
327 320 305 295 285 273 270 269 278 310 328 351 15 29 127 27 4 202 191 183 161 101 24 324 296 304 321 312 304 316 343 351 333 264 262 257 229 222 215 206 203 203 199 208 238 221 223 246 255 260 204 168 134 81 241 239 250 259 229 180 192 208 229 240 242 246 253 264 225 174 212 235 228 130 160 158 167 183 190 193 201 209 215 218 223 236 249
324 315 300 289 280 267 260 261 277 308 325 358 67 58 219 58 8 192 184 176 161 119 65 291 279 292 307 293 279 314 330 341 47 106 90 70 65 179 184 178 180 189 188 152 106 221 251 200 143 266 216 166 155 208 223 230 266 266 226 196 197 198 210 232 246 251 252 258 84 137 220 219 146 157 177 173 179 185 188 194 202 209 218 224 229 242 254
319 311 299 287 276 261 253 267 283 302 316 292 200 225 226 190 139 169 173 171 162 122 21 325 306 300 314 316 305 314 319 324 105 82 76 82 63 76 116 125 130 160 154 127 131 201 225 169 178 238 221 171 168 213 216 222 257 264 249 220 216 211 214 226 236 243 243 217 153 190 232 212 199 206 195 173 178 185 190 196 198 201 212 226 235 246 254
316 308 300 285 266 247 259 296 317 334 355 24 47 14 232 220 196 163 164 167 165 131 121 327 321 307 307 314 319 340 338 326 125 45 28 38 36 60 98 85 89 160 168 172 186 215 222 177 197 232 204 158 173 236 235 230 248 261 269 264 252 238 232 231 232 240 241 205 185 215 237 226 208 205 178 150 165 180 192 196 189 186 202 225 245 256 262
313 305 294 274 254 272 323 45 49 47 53 65 57 47 50 215 197 169 162 163 165 159 169 262 315 317 312 303 321 34 13 352 321 356 11 27 21 347 148 126 132 187 190 186 194 232 236 205 206 220 183 162 199 238 243 258 275 284 281 274 268 254 236 227 229 240 238 208 200 221 235 208 151 169 171 159 159 172 186 187 182 189 209 227 249 268 277
309 295 274 94 71 61 72 79 66 49 47 54 38 26 26 199 189 173 159 146 84 265 184 216 275 300 322 315 320 32 11 347 342 350 317 17 26 17 156 158 202 216 181 164 189 229 223 195 182 209 193 177 208 231 272 310 317 317 307 296 292 277 243 225 227 239 236 214 209 219 215 175 156 168 177 175 171 174 181 183 180 193 221 243 256 270 277
304 118 100 88 78 70 71 72 54 38 42 46 36 37 57 113 159 168 159 100 1 290 244 329 270 254 301 312 313 357 347 319 236 127 244 252 22 33 83 208 248 210 152 168 211 219 202 162 182 219 206 192 234 284 330 324 320 321 319 313 309 297 268 242 227 222 215 205 203 200 191 190 190 178 168 175 177 171 174 178 177 187 216 245 258 266 274
143 108 94 89 84 79 77 61 47 63 95 94 78 74 82 100 131 161 181 300 304 241 236 296 271 253 269 283 286 337 344 316 301 20 338 252 156 55 66 271 260 213 190 219 224 198 152 165 221 236 219 211 312 342 352 335 324 326 327 321 316 308 288 260 226 191 167 178 191 187 186 193 191 173 169 184 180 163 171 192 198 200 218 241 259 273 288
119 101 87 82 84 87 95 85 87 117 132 121 92 84 101 109 123 161 194 235 242 216 204 244 258 252 251 257 258 313 353 330 335 358 350 317 305 169 194 236 274 285 261 253 216 134 159 190 222 243 216 154 351 348 349 335 325 333 336 329 325 321 304 272 220 187 177 178 183 182 181 186 188 186 189 189 177 166 181 200 200 203 222 245 267 286 299
109 95 79 68 67 72 77 83 111 143 157 170 267 282 210 169 179 190 182 197 231 226 204 225 247 240 225 238 257 277 101 288 289 265 231 244 283 261 247 245 219 255 270 272 178 166 210 218 212 226 230 58 10 352 346 334 329 341 345 334 328 331 325 296 236 209 205 208 193 180 176 177 182 184 188 187 179 174 180 186 190 203 223 249 279 296 304
116 106 103 89 83 95 95 91 104 130 154 199 239 235 209 212 210 197 169 197 226 228 206 223 251 240 224 243 271 271 178 198 253 262 232 225 233 258 261 255 172 237 267 268 179 181 235 245 211 208 221 10 357 346 343 337 335 344 350 344 340 346 353 340 291 247 235 247 200 179 179 175 170 170 177 186 189 185 177 178 190 207 225 262 296 305 308
137 141 141 125 106 119 119 111 111 134 179 245 246 220 211 234 208 194 207 226 239 243 215 215 249 250 219 219 239 240 213 201 175 288 237 233 211 230 243 232 148 264 265 256 187 185 229 239 232 218 200 5 340 334 341 344 342 344 349 352 350 350 357 360 340 298 258 236 191 171 171 167 161 162 172 182 185 181 166 162 173 190 218 296 307 313 314
150 142 136 122 127 161 151 141 137 154 191 240 304 321 309 287 259 236 228 233 248 248 197 202 227 252 213 195 206 229 234 182 138 183 233 234 209 256 260 228 191 243 255 244 178 208 227 237 234 215 182 355 334 331 339 342 341 341 343 349 349 347 351 1 353 326 289 256 209 163 161 169 168 164 165 165 163 158 149 142 143 143 104 2 319 317 318
151 137 89 84 108 123 152 160 170 194 184 102 49 307 253 240 232 229 229 229 222 212 203 207 238 274 234 196 201 216 169 126 144 207 230 216 96 244 259 240 219 231 245 196 198 219 235 240 226 197 89 356 332 332 335 331 331 335 337 339 341 341 340 337 319 300 288 278 250 184 172 173 170 163 164 161 151 143 139 132 122 111 99 48 324 322 328
143 107 33 107 119 111 131 169 191 222 222 197 197 217 233 249 212 207 216 220 214 230 221 158 192 282 276 206 193 207 179 134 121 210 212 209 185 204 234 246 234 204 217 234 228 234 250 244 223 179 15 339 326 331 331 326 326 330 331 331 333 334 333 328 311 284 257 256 255 221 187 169 156 155 161 158 146 139 136 126 113 113 114 37 332 339 344
140 70 49 82 89 348 282 306 275 232 226 219 209 210 241 307 290 208 195 169 199 267 284 211 225 267 278 249 208 234 202 160 210 220 201 217 225 215 225 245 231 218 245 237 224 241 258 243 206 29 337 326 326 328 323 321 325 326 321 322 326 326 325 323 313 296 258 220 236 230 194 165 159 159 154 146 141 136 125 114 117 127 127 15 353 357 357
118 84 85 111 252 282 258 212 205 219 216 209 200 200 221 260 248 183 161 172 198 241 272 272 262 266 266 242 208 217 154 160 214 196 140 235 241 230 235 275 256 253 250 232 223 241 255 240 160 325 321 321 323 323 319 320 325 323 317 316 318 316 314 312 306 295 270 218 226 235 206 168 162 158 146 139 138 131 117 115 125 131 106 26 11 11 7
108 92 80 103 193 290 248 222 226 232 221 209 218 221 232 276 286 216 200 201 217 243 261 263 258 257 256 252 255 217 161 205 245 203 161 246 266 267 233 247 245 243 246 247 251 263 299 333 323 321 325 325 322 319 319 317 315 315 312 308 308 309 307 304 302 298 280 216 208 229 212 169 156 151 144 140 136 129 124 126 128 119 83 46 33 25 19
144 130 88 173 207 232 221 221 259 265 225 197 234 229 183 112 300 275 239 206 222 256 265 257 249 236 206 217 254 240 168 218 253 227 173 265 287 306 271 259 263 256 246 265 298 320 329 327 322 321 322 318 312 311 311 309 309 310 307 301 303 307 304 299 299 298 281 200 179 204 202 164 151 149 147 140 131 126 129 132 128 114 84 59 47 37 31
112 95 110 179 220 229 218 248 304 291 259 231 271 244 182 203 259 270 263 218 219 248 256 252 252 255 223 143 244 237 208 235 265 276 273 271 291 318 305 288 288 289 284 300 320 321 319 320 319 313 308 306 306 307 305 302 303 304 301 299 302 303 299 295 296 292 268 188 169 178 177 164 156 152 145 137 130 130 133 133 123 109 86 64 55 49 42
75 65 188 217 241 235 199 207 263 273 336 351 303 257 218 230 250 254 240 221 221 205 178 194 225 235 224 344 296 260 239 63 2 323 308 308 333 336 305 290 292 305 316 322 322 318 317 316 312 307 306 307 306 304 301 300 300 298 295 295 297 296 293 296 296 287 242 176 170 172 166 162 162 157 140 132 130 131 131 128 118 107 92 75 67 61 50
28 294 229 230 245 251 248 292 285 281 296 295 281 258 221 223 232 196 174 202 225 205 184 218 212 127 118 349 341 335 339 89 52 341 317 321 337 312 300 300 308 316 319 319 317 314 312 311 309 306 306 305 303 301 299 299 298 295 292 294 295 294 295 299 297 276 191 168 170 167 160 161 165 153 133 128 131 132 129 124 117 110 99 86 76 67 56
195 260 266 257 243 236 244 274 275 259 243 244 250 245 226 221 214 155 169 211 256 14 66 178 145 49 14 347 358 8 16 41 16 344 313 285 283 301 308 314 317 316 313 314 316 316 315 313 309 305 301 299 298 299 298 296 294 291 289 292 293 292 295 300 295 227 162 161 166 162 158 162 160 144 131 132 138 137 131 128 125 118 106 93 80 69 60